Voltar ao catálogo

SL-8 DEB

AtivoLEO
NORAD 21958·DEBRIS·🇷🇺 Russia

Lançado Feb 12, 1991 de Plesetsk Cosmodrome

Loading…

Próximas Passagens (próximas 24 horas)

TLE

AtualizadoSource: Space-Track

Época: Sep 14, 2026, 00:56 UTC

1 21958U 91009CG  26257.03922360 -.00000055  00000-0 -40039-3 0  9992
2 21958  73.9613 104.8937 0133717  28.3165 124.2960 12.16812543577595

Acompanhe SL-8 DEB em tempo real com AllMySat

Download on the App Store